EWG4FG EDDL-EDDS

Flight info

Callsign EWG4FG
Flight time 0h 41m
Altitude 23000
Route KUMIK5Z KUMIK L603 BOMBI N850 KRH T128 BADSO BADSO2A
Aircraft A21N/M-SDE2E3FGHIRWXY/LB1

Departure

Time 2026-05-05 15:35
Airport Düsseldorf Airport (EDDL)

Arrival

Time 2026-05-05 16:16
Airport Stuttgart Airport (EDDS)
Time Latitude Longitude Altitude Speed Heading
2026-05-05 15:06 51.28439 6.76983 134 ft 0 kts 322°
2026-05-05 15:26 51.28431 6.76994 134 ft 4 kts 322°
2026-05-05 15:26 51.28413 6.77014 134 ft 3 kts 322°
2026-05-05 15:27 51.28398 6.77038 134 ft 4 kts 273°
2026-05-05 15:27 51.28407 6.77064 134 ft 5 kts 232°
2026-05-05 15:27 51.28419 6.77090 134 ft 0 kts 232°
2026-05-05 15:30 51.28419 6.77089 134 ft 1 kts 232°
2026-05-05 15:30 51.28407 6.77064 134 ft 5 kts 232°
2026-05-05 15:30 51.28378 6.77003 134 ft 9 kts 232°
2026-05-05 15:31 51.28361 6.76892 134 ft 13 kts 297°
2026-05-05 15:31 51.28435 6.76797 131 ft 15 kts 324°
2026-05-05 15:31 51.28440 6.76650 133 ft 17 kts 227°
2026-05-05 15:31 51.28356 6.76496 128 ft 20 kts 233°
2026-05-05 15:32 51.28266 6.76309 133 ft 22 kts 232°
2026-05-05 15:32 51.28166 6.76100 134 ft 25 kts 232°
2026-05-05 15:32 51.28056 6.75867 135 ft 27 kts 233°
2026-05-05 15:32 51.27939 6.75620 134 ft 29 kts 233°
2026-05-05 15:33 51.27851 6.75434 132 ft 14 kts 233°
2026-05-05 15:33 51.27875 6.75320 127 ft 14 kts 335°
2026-05-05 15:33 51.27967 6.75256 127 ft 10 kts 349°
2026-05-05 15:33 51.28012 6.75308 130 ft 10 kts 55°
2026-05-05 15:34 51.28073 6.75433 132 ft 32 kts 52°
2026-05-05 15:34 51.28359 6.76027 135 ft 101 kts 50°
2026-05-05 15:34 51.28898 6.77158 134 ft 153 kts 52°
2026-05-05 15:34 51.29585 6.78615 413 ft 168 kts 52°
2026-05-05 15:35 51.30280 6.80162 944 ft 175 kts 54°
2026-05-05 15:35 51.31006 6.81769 1470 ft 183 kts 51°
2026-05-05 15:35 51.31828 6.83437 1966 ft 198 kts 51°
2026-05-05 15:35 51.32692 6.85320 2437 ft 225 kts 56°
2026-05-05 15:36 51.33656 6.87521 2870 ft 252 kts 54°
2026-05-05 15:36 51.34702 6.89852 3626 ft 263 kts 57°
2026-05-05 15:36 51.35411 6.92601 4487 ft 271 kts 78°
2026-05-05 15:36 51.35408 6.95633 5304 ft 278 kts 104°
2026-05-05 15:37 51.34670 6.98499 6074 ft 286 kts 109°
2026-05-05 15:37 51.34269 7.01633 6930 ft 291 kts 97°
2026-05-05 15:37 51.34013 7.04861 7911 ft 291 kts 98°
2026-05-05 15:37 51.33720 7.08045 9022 ft 288 kts 99°
2026-05-05 15:38 51.33410 7.11236 9937 ft 291 kts 99°
2026-05-05 15:38 51.33080 7.14548 10448 ft 312 kts 99°
2026-05-05 15:38 51.32741 7.18049 10800 ft 334 kts 98°
2026-05-05 15:38 51.32447 7.21928 11137 ft 357 kts 97°
2026-05-05 15:39 51.32155 7.25920 11433 ft 377 kts 97°
2026-05-05 15:39 51.31842 7.30154 11979 ft 386 kts 97°
2026-05-05 15:39 51.31509 7.34449 12686 ft 390 kts 99°
2026-05-05 15:39 51.30810 7.38650 13351 ft 392 kts 113°
2026-05-05 15:40 51.29438 7.42410 14000 ft 394 kts 128°
2026-05-05 15:40 51.27699 7.45810 14607 ft 397 kts 131°
2026-05-05 15:40 51.25925 7.49154 15178 ft 401 kts 131°
2026-05-05 15:40 51.24122 7.52579 15752 ft 404 kts 130°
2026-05-05 15:41 51.22312 7.56047 16298 ft 407 kts 130°
2026-05-05 15:41 51.20497 7.59533 16832 ft 410 kts 130°
2026-05-05 15:41 51.18660 7.63065 17346 ft 413 kts 130°
2026-05-05 15:41 51.16784 7.66575 17844 ft 416 kts 134°
2026-05-05 15:42 51.14650 7.69616 18318 ft 418 kts 142°
2026-05-05 15:42 51.12334 7.72472 18801 ft 421 kts 143°
2026-05-05 15:42 51.09994 7.75307 19280 ft 424 kts 143°
2026-05-05 15:42 51.07637 7.78170 19747 ft 427 kts 143°
2026-05-05 15:43 51.05271 7.81053 20223 ft 430 kts 143°
2026-05-05 15:43 51.02916 7.83927 20687 ft 432 kts 143°
2026-05-05 15:43 51.00521 7.86845 21151 ft 435 kts 143°
2026-05-05 15:43 50.98113 7.89782 21644 ft 438 kts 143°
2026-05-05 15:44 50.95675 7.92754 22112 ft 441 kts 143°
2026-05-05 15:44 50.93232 7.95726 22576 ft 444 kts 143°
2026-05-05 15:44 50.90770 7.98714 22817 ft 449 kts 143°
2026-05-05 15:44 50.88255 8.01763 22861 ft 456 kts 143°
2026-05-05 15:45 50.85765 8.04792 22854 ft 457 kts 143°
2026-05-05 15:45 50.83431 8.08213 22830 ft 459 kts 133°
2026-05-05 15:45 50.81516 8.12252 22833 ft 459 kts 125°
2026-05-05 15:45 50.79747 8.16484 22833 ft 460 kts 124°
2026-05-05 15:46 50.77991 8.20712 22892 ft 461 kts 124°
2026-05-05 15:46 50.76212 8.24959 23253 ft 463 kts 125°
2026-05-05 15:46 50.74419 8.29204 23736 ft 465 kts 125°
2026-05-05 15:46 50.72640 8.33402 24211 ft 466 kts 125°
2026-05-05 15:47 50.70770 8.37591 24695 ft 465 kts 130°
2026-05-05 15:47 50.69314 8.40140 25027 ft 464 kts 136°
2026-05-05 15:47 50.65881 8.44072 25768 ft 458 kts 152°
2026-05-05 15:47 50.63068 8.46398 26315 ft 456 kts 154°
2026-05-05 15:48 50.60251 8.48691 26873 ft 454 kts 153°
2026-05-05 15:48 50.57461 8.50995 27397 ft 452 kts 153°
2026-05-05 15:48 50.54726 8.53283 27939 ft 449 kts 153°
2026-05-05 15:48 50.51977 8.55592 28449 ft 447 kts 153°
2026-05-05 15:49 50.49224 8.57907 28762 ft 445 kts 153°
2026-05-05 15:49 50.43684 8.62232 28833 ft 442 kts 161°
2026-05-05 15:50 50.37844 8.65057 28819 ft 441 kts 164°
2026-05-05 15:50 50.31929 8.67794 28814 ft 441 kts 164°
2026-05-05 15:51 50.26073 8.70531 28810 ft 442 kts 164°
2026-05-05 15:51 50.20177 8.73284 28817 ft 441 kts 164°
2026-05-05 15:52 50.14274 8.76032 28823 ft 442 kts 164°
2026-05-05 15:52 50.08353 8.78687 28818 ft 442 kts 168°
2026-05-05 15:53 50.02276 8.78997 28823 ft 441 kts 190°
2026-05-05 15:53 49.96282 8.76879 28828 ft 441 kts 193°
2026-05-05 15:54 49.90339 8.74735 28819 ft 441 kts 192°
2026-05-05 15:54 49.84329 8.72658 28819 ft 441 kts 192°
2026-05-05 15:55 49.78360 8.70615 28818 ft 441 kts 192°
2026-05-05 15:55 49.72339 8.68831 28821 ft 440 kts 186°
2026-05-05 15:56 49.66240 8.67991 28823 ft 440 kts 185°
2026-05-05 15:56 49.60120 8.67182 28823 ft 440 kts 185°
2026-05-05 15:57 49.54013 8.66366 28821 ft 440 kts 185°
2026-05-05 15:57 49.47937 8.65558 28819 ft 440 kts 185°
2026-05-05 15:58 49.41820 8.64742 28820 ft 439 kts 185°
2026-05-05 15:58 49.38814 8.64343 28650 ft 437 kts 185°
2026-05-05 15:58 49.35789 8.63941 28354 ft 437 kts 185°
2026-05-05 15:58 49.32744 8.63539 28024 ft 438 kts 185°
2026-05-05 15:59 49.29701 8.63100 27680 ft 439 kts 186°
2026-05-05 15:59 49.26651 8.62616 27332 ft 441 kts 186°
2026-05-05 15:59 49.23601 8.62130 26912 ft 442 kts 186°
2026-05-05 15:59 49.20532 8.61648 26401 ft 443 kts 186°
2026-05-05 16:00 49.17491 8.61174 25877 ft 444 kts 186°
2026-05-05 16:00 49.14399 8.60702 25285 ft 447 kts 185°
2026-05-05 16:00 49.11282 8.60230 24650 ft 449 kts 185°
2026-05-05 16:00 49.08168 8.60222 23995 ft 446 kts 174°
2026-05-05 16:01 49.05136 8.61194 23344 ft 445 kts 162°
2026-05-05 16:01 49.02349 8.63069 22706 ft 444 kts 151°
2026-05-05 16:01 48.99844 8.65818 22052 ft 443 kts 139°
2026-05-05 16:01 48.97774 8.69297 21396 ft 443 kts 127°
2026-05-05 16:02 48.96227 8.73355 20753 ft 443 kts 115°
2026-05-05 16:02 48.95225 8.77799 20109 ft 442 kts 107°
2026-05-05 16:02 48.94485 8.82327 19466 ft 441 kts 104°
2026-05-05 16:02 48.93817 8.86825 18824 ft 438 kts 103°
2026-05-05 16:03 48.93161 8.91345 18175 ft 436 kts 103°
2026-05-05 16:03 48.92510 8.95845 17525 ft 434 kts 103°
2026-05-05 16:03 48.91860 9.00333 16871 ft 431 kts 103°
2026-05-05 16:03 48.91224 9.04725 16228 ft 429 kts 103°
2026-05-05 16:04 48.90585 9.09134 15579 ft 426 kts 103°
2026-05-05 16:04 48.89945 9.13552 14922 ft 424 kts 103°
2026-05-05 16:04 48.89312 9.17923 14270 ft 421 kts 103°
2026-05-05 16:04 48.88681 9.22273 13616 ft 419 kts 103°
2026-05-05 16:05 48.88061 9.26535 12973 ft 417 kts 103°
2026-05-05 16:05 48.87433 9.30836 12322 ft 417 kts 103°
2026-05-05 16:05 48.86804 9.35141 11669 ft 417 kts 103°
2026-05-05 16:05 48.86179 9.39398 11012 ft 414 kts 103°
2026-05-05 16:06 48.85565 9.43601 10312 ft 398 kts 102°
2026-05-05 16:06 48.85402 9.47696 9613 ft 382 kts 86°
2026-05-05 16:06 48.85758 9.51623 8982 ft 367 kts 80°
2026-05-05 16:06 48.86217 9.55333 8342 ft 355 kts 79°
2026-05-05 16:07 48.86685 9.58958 7678 ft 345 kts 79°
2026-05-05 16:07 48.86852 9.62526 7017 ft 335 kts 97°
2026-05-05 16:07 48.86214 9.65856 6405 ft 324 kts 118°
2026-05-05 16:07 48.84869 9.68492 5902 ft 310 kts 141°
2026-05-05 16:08 48.83061 9.70081 5423 ft 295 kts 163°
2026-05-05 16:08 48.81098 9.70420 5087 ft 283 kts 188°
2026-05-05 16:08 48.79275 9.69478 5003 ft 272 kts 213°
2026-05-05 16:08 48.77843 9.67743 4987 ft 256 kts 228°
2026-05-05 16:09 48.76974 9.65515 4975 ft 237 kts 250°
2026-05-05 16:09 48.76529 9.63176 4981 ft 229 kts 257°
2026-05-05 16:09 48.76189 9.60810 4992 ft 229 kts 258°
2026-05-05 16:09 48.75834 9.58462 4991 ft 225 kts 256°
2026-05-05 16:10 48.75431 9.56261 5006 ft 205 kts 255°
2026-05-05 16:10 48.75057 9.54266 5024 ft 198 kts 255°
2026-05-05 16:10 48.74674 9.52234 4866 ft 203 kts 255°
2026-05-05 16:10 48.74275 9.50126 4631 ft 212 kts 255°
2026-05-05 16:11 48.73872 9.47993 4359 ft 209 kts 254°
2026-05-05 16:11 48.72713 9.41861 3544 ft 186 kts 255°
2026-05-05 16:12 48.72374 9.40067 3306 ft 173 kts 255°
2026-05-05 16:12 48.71770 9.36870 2848 ft 136 kts 254°
2026-05-05 16:13 48.71005 9.32820 2348 ft 137 kts 253°
2026-05-05 16:13 48.70832 9.31902 2226 ft 137 kts 254°
2026-05-05 16:13 48.70568 9.30509 2051 ft 137 kts 254°
2026-05-05 16:14 48.70038 9.27743 1678 ft 137 kts 254°
2026-05-05 16:14 48.69516 9.24970 1310 ft 135 kts 254°
2026-05-05 16:15 48.69066 9.22612 1230 ft 75 kts 253°
2026-05-05 16:15 48.68861 9.21540 1259 ft 50 kts 254°
2026-05-05 16:16 48.68829 9.21016 1271 ft 15 kts 284°
2026-05-05 16:16 48.68876 9.20719 1280 ft 16 kts 271°
2026-05-05 16:17 48.68822 9.20391 1288 ft 18 kts 253°
2026-05-05 16:17 48.68785 9.20200 1292 ft 16 kts 254°
2026-05-05 16:18 48.68756 9.19843 1302 ft 20 kts 256°
2026-05-05 16:18 48.68715 9.19628 1308 ft 22 kts 254°
2026-05-05 16:18 48.68646 9.19196 1320 ft 12 kts 301°
2026-05-05 16:19 48.68710 9.19153 1323 ft 8 kts 347°
2026-05-05 16:19 48.68766 9.19167 1322 ft 10 kts 53°
2026-05-05 16:19 48.68831 9.19305 1320 ft 6 kts 344°
2026-05-05 16:20 48.68865 9.19290 1321 ft 1 kts 344°